Regional Weather Roundup
Issued by NWS Kansas City/Pleasant Hill, MO

Home | Current Version | Previous Version | Graphics & Text | Print | Product List | Glossary Off
Versions: 1 2 3 4 5 6 7 8 9 10 11 12 13 14 15 16 17 18 19 20 21 22 23 24 25 26 27 28 29 30 31 32 33 34 35 36 37 38 39 40 41 42 43 44 45 46 47 48 49 50

000
ASUS43 KEAX 030210
RWREAX

WEATHER ROUNDUP FOR EASTERN KANSAS AND NORTHWEST MISSOURI
NATIONAL WEATHER SERVICE KANSAS CITY/PLEASANT HILL MO
900 PM CDT WED SEP 02 2015

KSZ040-057-103>105-MOZ028-029-037-043-030300-
...KANSAS CITY METROPOLITAN AREA...

CITY           SKY/WX    TMP DP  RH WIND       PRES   REMARKS
K.C. INTL      CLEAR     76  69  79 S9        29.94R
K.C. DOWNTOWN  CLEAR     82  69  64 S8        29.93R
LEES SUMMIT    CLEAR     81  67  62 S7        29.96R
OLATHE - IXD   CLEAR     77  70  79 SE6       29.96R
OLATHE - OJC   CLEAR     75  69  81 S7        29.95R
LAWRENCE       CLEAR     76  69  79 SE6       29.93R

$$

MOZ001>008-011>017-020>025-030>033-038>040-044>046-053-054-030300-
...NORTHERN AND CENTRAL MISSOURI...

CITY           SKY/WX    TMP DP  RH WIND       PRES   REMARKS
ST. JOSEPH     CLEAR     78  70  76 S10       29.91R
MOSBY          CLEAR     79  68  69 SE3       29.94R
WARRENSBURG    CLEAR     77  66  69 SE3       29.95R
WHITEMAN AFB   PTCLDY    78  68  71 S6        29.96R
CLINTON        CLEAR     79  70  73 CALM      29.97R
SEDALIA        CLEAR     76  70  82 S6        29.98R
WARSAW         NOT AVBL
CHILLICOTHE      N/A     80  71  74 S5        29.95R
KIRKSVILLE     MOCLDY    76  69  79 S8        29.97S

$$

MOZ041-047>049-056>058-063>065-088>090-097-030300-
...EASTERN AND SOUTHERN MISSOURI...

CITY           SKY/WX    TMP DP  RH WIND       PRES   REMARKS
ST. LOUIS INTL PTCLDY    85  68  56 CALM      30.01R
SPIRIT OF STL  CLEAR     76  74  93 CALM      29.99R
COLUMBIA       CLEAR     77  69  76 SE7       29.99R
JEFFERSON CITY CLEAR     79  65  62 E5        29.98R
ROLLA          CLEAR     74  66  76 SE6       30.01R
OSAGE BEACH    CLEAR     79  64  61 SE3       30.00R
SPRINGFIELD    CLEAR     77  68  73 SE5       30.00R
BRANSON        CLEAR     75  66  73 S5        30.03R
WEST PLAINS    CLEAR     77  68  73 CALM      30.05R

$$

IAZ060-094-KSZ022-034>040-054-083-096-NEZ052-066-093-030300-
...KANSAS...SOUTHEAST NEBRASKA AND IOWA...

CITY           SKY/WX    TMP DP  RH WIND       PRES   REMARKS
TOPEKA         CLEAR     80  69  69 SE8       29.92R
MANHATTAN      CLEAR     82  67  60 S7        29.87R
EMPORIA        CLEAR     79  68  69 S12       29.92R
CHANUTE        CLEAR     76  70  82 SE7       29.95R
WICHITA        PTCLDY    83  64  52 SE12      29.90R
OMAHA          MOCLDY    82  72  71 S10       29.85R
LINCOLN        PTCLDY    82  68  62 S10       29.84R
FALLS CITY     PTCLDY    77  70  79 SE6       29.88R
LAMONI         PTCLDY    78  71  79 S7        29.93R
DES MOINES     MOCLDY    79  70  74 S8        29.91R

$$




USA.gov is the U.S. government's official web portal to all federal, state and local government web resources and services.